Last 24 Hours

Squaw-Siberia 8700'

Hourly Data | America/Los_Angeles
as of 3/29/20 2:45 PM PDT
Date & Time Temp (°F) RH (%) Dew Pt (°F) Wet Bulb (°F) Wind Dir (°) Wind Gust (mph) WindChill (°F) Daily Min Temp (°F) Daily Max Temp (°F)
3/29/20 - 1400 27.7 100 27.7 27.7 W | 271 0.0 28.3 20.3 29.9
3/29/20 - 1300 28.4 100 28.4 28.4 WSW | 257 0.1 27.8 20.3 29.9
3/29/20 - 1200 28.4 100 28.4 28.4 WSW | 247 0.0 28.3 20.3 29.9
3/29/20 - 1100 26.1 100 26.1 26.1 W | 277 0.0 25.9 20.3 26.5
3/29/20 - 1000 25.5 100 25.4 25.4 WSW | 240 0.0 24.2 20.3 25.6
3/29/20 - 0900 23.3 99 23.1 23.2 SW | 228 0.0 22.2 20.3 23.3
3/29/20 - 0800 21.1 99 20.7 20.9 SW | 224 0.0 20.7 20.3 21.1
3/29/20 - 0700 20.4 99 20.1 20.3 SW | 220 0.0 20.4 20.3 20.6
3/29/20 - 0600 20.4 99 20.1 20.3 SW | 220 0.1 20.4 20.3 20.6
3/29/20 - 0500 20.3 99 19.9 20.2 SW | 222 0.2 20.3 20.3 20.6
3/29/20 - 0400 20.4 99 20.1 20.3 SW | 223 0.1 20.4 20.3 20.6
3/29/20 - 0300 20.5 99 20.1 20.3 WSW | 241 0.0 20.5 20.3 20.6
3/29/20 - 0200 20.5 99 20.2 20.4 SW | 226 0.0 20.4 20.3 20.6
3/29/20 - 0100 20.4 98 20.0 20.2 SW | 223 0.0 20.3 20.3 20.4
3/29/20 - 0000 20.3 99 20.0 20.2 SW | 229 0.0 20.4 15.1 28.1
3/28/20 - 2300 20.4 99 20.1 20.3 WSW | 237 0.0 20.7 15.1 28.1
3/28/20 - 2200 21.0 99 20.8 20.9 SW | 226 0.1 21.1 15.1 28.1
3/28/20 - 2100 21.1 99 20.8 21.0 SW | 217 0.0 21.2 15.1 28.1
3/28/20 - 2000 21.1 99 20.9 21.1 SW | 224 0.0 21.5 15.1 28.1
3/28/20 - 1900 22.0 99 21.8 21.9 SW | 236 0.2 22.2 15.1 28.1
3/28/20 - 1800 22.8 99 22.7 22.8 WSW | 237 0.2 23.1 15.1 28.1
3/28/20 - 1700 24.0 100 23.9 24.0 WSW | 238 0.0 25.3 15.1 28.1
3/28/20 - 1600 25.1 99 25.0 25.0 SW | 229 0.1 25.4 15.1 28.1
3/28/20 - 1500 26.0 99 25.9 25.9 SW | 226 0.1 26.5 15.1 28.1
3/28/20 - 1400 27.4 100 27.3 27.4 WSW | 246 0.1 27.4 15.1 28.1
Max 28.4 100 28.4 28.4 - 0.2 28.3 20.3 29.9
Avg 23.0 99 22.8 22.9 - 0.1 23.0 - -
Min 20.3 98 19.9 20.2 - 0.0 20.3 15.1 20.4